User: anonymous   Login
Location: Unspecified
(0.0000°N, 0.0000°E)
Time: 12:20:18
(UTC+01:00)
Language:

Cosmos 1898 Rocket - Orbit

View from above orbital plane
View from above orbital plane
View from above satellite
View from above satellite

Ground track
Ground track

The orbit data is extracted from the following two-line orbital elements,

1 18586U 87098B   14354.92665802  .00000610  00000-0  21625-3 0  2006
2 18586 074.0057 169.3945 0020012 079.7147 072.3548 14.36527523416783
Epoch (UTC): 20 December 2014 22:14:23
Eccentricity: 0.0020012
inclination: 74.0057°
perigee height: 755 km
apogee height: 784 km
right ascension of ascending node: 169.3945°
argument of perigee: 79.7147°
revolutions per day: 14.36527523
mean anomaly at epoch: 72.3548°
orbit number at epoch: 41678

The dashed part of the orbit path shows where the satellite is in the earth's shadow,  

DLR